Charleston, SC

9:28 AM EST on December 17, 2017 (GMT -0500)
Charleston Air Force Base-International

Weather History for KCHS - March, 2013

Change the Weather History Date:

Monday, March 4, 2013

  Actual Average Record
Temperature  
Mean Temperature 42 °F 55 °F  
Max Temperature 57 °F 67 °F 83 °F (2004)
Min Temperature 27 °F 44 °F 21 °F (1980)
Degree Days  
Heating Degree Days 23 10  
Month to date heating degree days 88 42  
Since 1 July heating degree days 1473 1678  
Cooling Degree Days 0 1  
Month to date cooling degree days 0 2  
Year to date cooling degree days 21 9  
Moisture  
Dew Point 23 °F    
Average Humidity 51    
Maximum Humidity 81    
Minimum Humidity 21    
Precipitation  
Precipitation 0.00 in 0.12 in 2.36 in (1977)
Month to date precipitation 0.00 0.46  
Year to date precipitation 10.82 7.13  
Snow  
Snow 0.00 in 0.00 in - ()
Month to date snowfall 0.0  
Since 1 July snowfall T 0.5  
Snow Depth 0.00 in    
Sea Level Pressure  
Sea Level Pressure 30.13 in    
Wind  
Wind Speed 7 mph (WNW)    
Max Wind Speed 15 mph    
Max Gust Speed 22 mph    
Visibility 10 miles    
Events      
T = Trace of Precipitation, MM = Missing Value Source: NWS Daily Summary

Daily Weather History Graph

Daily Weather History Graph

Search for Another Location

Airport or City:

Trip Planner

Search our weather history database for the weather conditions in past years. The results will help you decide how hot, cold, wet, or windy it might be!

Date:

Astronomy

Mar. 04, 2013 Rise Set
Actual Time 6:44 AM EST 6:19 PM EST
Civil Twilight 6:19 AM EST 6:44 PM EST
Nautical Twilight 5:50 AM EST 7:13 PM EST
Astronomical Twilight 5:22 AM EST 7:41 PM EST
Moon 12:39 AM EST (3/4) 11:13 AM EST (3/4)
Length of Visible Light 12h 25m
Length of Day
11h 35m
Waning Gibbous, 52% of the Moon is Illuminated
Mar 4
Waning Gibbous
Mar 4
Last Quarter
Mar 11
New
Mar 19
First Quarter
Mar 27
Full

Hourly Weather History & Observations

Time (EST) Temp. Windchill Dew Point Humidity Pressure Visibility Wind Dir Wind Speed Gust Speed Precip Events Conditions
12:56 AM 35.1 °F 27.9 °F 23.0 °F 61% 30.04 in 10.0 mi West 9.2 mph - N/A   Clear
1:56 AM 34.0 °F 28.8 °F 23.0 °F 64% 30.04 in 10.0 mi WNW 5.8 mph - N/A   Clear
2:56 AM 33.1 °F 25.5 °F 23.0 °F 66% 30.05 in 10.0 mi WNW 9.2 mph - N/A   Clear
3:56 AM 30.9 °F 23.5 °F 23.0 °F 72% 30.08 in 10.0 mi NW 8.1 mph - N/A   Clear
4:56 AM 30.0 °F 23.2 °F 23.0 °F 75% 30.11 in 10.0 mi NW 6.9 mph - N/A   Clear
5:56 AM 30.0 °F 24.1 °F 23.0 °F 75% 30.14 in 10.0 mi NW 5.8 mph - N/A   Clear
6:56 AM 27.0 °F 23.0 °F 21.9 °F 81% 30.16 in 10.0 mi NNW 3.5 mph - N/A   Clear
7:56 AM 33.1 °F 27.7 °F 25.0 °F 72% 30.18 in 10.0 mi NNW 5.8 mph - N/A   Clear
8:56 AM 39.0 °F 34.0 °F 23.0 °F 53% 30.18 in 10.0 mi NNW 6.9 mph - N/A   Clear
9:56 AM 42.1 °F 36.1 °F 19.0 °F 40% 30.19 in 10.0 mi NNW 10.4 mph - N/A   Clear
10:56 AM 45.0 °F 41.2 °F 19.0 °F 36% 30.19 in 10.0 mi NW 6.9 mph - N/A   Clear
11:56 AM 48.0 °F - 18.0 °F 30% 30.17 in 10.0 mi NW 6.9 mph - N/A   Clear
12:56 PM 51.1 °F - 18.0 °F 27% 30.14 in 10.0 mi WNW 9.2 mph 16.1 mph 0.01 in   Clear
1:56 PM 54.0 °F - 18.0 °F 24% 30.11 in 10.0 mi NNW 8.1 mph 19.6 mph N/A   Partly Cloudy
2:56 PM 55.0 °F - 17.1 °F 23% 30.11 in 10.0 mi NNW 8.1 mph - N/A   Partly Cloudy
3:56 PM 57.0 °F - 17.1 °F 21% 30.10 in 10.0 mi NW 9.2 mph - N/A   Partly Cloudy
4:56 PM 55.9 °F - 17.1 °F 22% 30.09 in 10.0 mi West 6.9 mph - N/A   Partly Cloudy
5:56 PM 54.0 °F - 18.0 °F 24% 30.11 in 10.0 mi WNW 5.8 mph - N/A   Partly Cloudy
6:56 PM 50.0 °F - 19.9 °F 31% 30.13 in 10.0 mi WSW 5.8 mph - N/A   Clear
7:56 PM 46.0 °F 41.9 °F 30.0 °F 54% 30.14 in 10.0 mi SW 8.1 mph - N/A   Clear
8:56 PM 45.0 °F 40.1 °F 33.1 °F 63% 30.15 in 10.0 mi SW 9.2 mph - N/A   Clear
9:56 PM 42.1 °F 40.2 °F 33.1 °F 70% 30.15 in 10.0 mi SSW 3.5 mph - N/A   Clear
10:56 PM 42.1 °F 40.2 °F 35.1 °F 76% 30.14 in 10.0 mi SSW 3.5 mph - N/A   Mostly Cloudy
11:56 PM 43.0 °F 39.5 °F 37.0 °F 80% 30.13 in 10.0 mi SSW 5.8 mph - N/A   Overcast